SL-16 R/B (23343 NORAD) Tracking and Keplerian Element Data

This shows tracking and keplerian element data for the satellite.

Feedback or suggestion? Click here.




ElementValue
Catalog23343
NameSL-16 R/B
Epoch Orbit29741
Epoch Day349.19814545
Epoch Year2018
RAAN34.3584
Inclination98.0809
Eccentricity0.0008106
Argument of Perigee116.2833
Mean Anonmoly284.8131
Mean Motion14.76756858
Decay Rate3E-08
L11 23343U 94074B 18349.19814545 .00000003 00000-0 78593-5 0 9991
L22 23343 98.0809 34.3584 0008106 116.2833 284.8131 14.76756858297414

Live tracking and technical data element details for SL-16 R/B (NORAD 23343). SL-16 R/B can be tracked NOW for your location showing map with azimuth and elevation plus other details from your city location.

Track the satellite on the map from your city or location and see movement details for azimuth, elevation, latitude, longitude, range, height, and movement on the map or in text.







IsCatalogInMostPopularTable: catalog: 23343, numindb: 38
Update: records affected: 1



GetName: 23343 SL-16 R/B

Hit Count: updated at: Sat, 15 Dec 2018 14:56:23 GMT